KJ6HT Weather Reports


Display with metric or nautical units.
time (UTC)temp
F
wind
direction
speed
MPH
gust
MPH
rain 1hr
in
rain 24hr
in
rain mn
in
humidity
%
barometer
mb
20260904211540 87 321 4.0 13.0 0.00 0.00 0.00 40 1010.7
20260904210038 85 229 2.0 12.0 0.00 0.00 0.00 42 1010.7
20260904204537 85 253 3.0 6.0 0.00 0.00 0.00 43 1011.0
20260904203038 85 271 2.0 7.0 0.00 0.00 0.00 44 1011.0
20260904201536 86 280 3.0 8.0 0.00 0.00 0.00 43 1011.1
20260904200043 83 75 2.0 9.0 0.00 0.00 0.00 45 1011.2
20260904194535 83 251 0.0 6.0 0.00 0.00 0.00 45 1011.4
20260904193034 80 303 3.0 10.0 0.00 0.00 0.00 48 1011.7
20260904191533 80 260 4.0 10.0 0.00 0.00 0.00 50 1012.0
20260904190024 80 250 1.0 8.0 0.00 0.00 0.00 51 1012.2
20260904184523 79 308 5.0 9.0 0.00 0.00 0.00 53 1012.3
20260904183021 79 215 0.0 5.0 0.00 0.00 0.00 55 1012.4
20260904181519 78 287 0.0 4.0 0.00 0.00 0.00 58 1012.5
20260904180020 77 208 1.0 7.0 0.00 0.00 0.00 58 1012.5
20260904174515 77 250 1.0 4.0 0.00 0.00 0.00 60 1012.7
20260904173012 75 37 0.0 3.0 0.00 0.00 0.00 64 1012.7
20260904171513 74 244 0.0 4.0 0.00 0.00 0.00 65 1012.6
20260904170008 74 11 0.0 3.0 0.00 0.00 0.00 68 1012.6
20260904164505 72 245 0.0 3.0 0.00 0.00 0.00 71 1012.4
20260904163002 70 207 0.0 5.0 0.00 0.00 0.00 74 1012.2
20260904161600 70 16 0.0 3.0 0.00 0.00 0.00 75 1012.1
20260904160058 69 287 0.0 0.0 0.00 0.00 0.00 77 1012.1
20260904154557 69 285 0.0 2.0 0.00 0.00 0.00 78 1012.2
20260904153108 68 307 0.0 3.0 0.00 0.00 0.00 82 1012.1
20260904151552 67 326 0.0 3.0 0.00 0.00 0.00 83 1012.2
20260904150052 67 316 1.0 2.0 0.00 0.00 0.00 81 1012.1
20260904144550 67 304 0.0 0.0 0.00 0.00 0.00 82 1012.0
20260904143046 64 303 0.0 0.0 0.00 0.00 0.00 87 1012.0
20260904141544 63 304 0.0 1.0 0.00 0.00 0.00 90 1012.0
20260904140042 61 304 0.0 0.0 0.00 0.00 0.00 92 1011.8
20260904134541 60 304 0.0 0.0 0.00 0.00 0.00 92 1011.8
20260904133045 60 303 0.0 0.0 0.00 0.00 0.00 91 1011.6
20260904131637 60 303 0.0 0.0 0.00 0.00 0.00 91 1011.6
20260904130036 61 303 0.0 0.0 0.00 0.00 0.00 91 1011.6
20260904124534 61 303 0.0 0.0 0.00 0.00 0.00 90 1011.5
20260904123031 61 303 0.0 0.0 0.00 0.00 0.00 89 1011.4
20260904121529 62 303 0.0 0.0 0.00 0.00 0.00 89 1011.3
20260904120027 62 303 0.0 1.0 0.00 0.00 0.00 88 1011.2
20260904114527 63 303 0.0 3.0 0.00 0.00 0.00 88 1011.2
20260904113038 63 308 0.0 0.0 0.00 0.00 0.00 88 1011.2
20260904111534 63 309 0.0 3.0 0.00 0.00 0.00 88 1011.0
20260904110024 63 283 1.0 3.0 0.00 0.00 0.00 88 1011.0
20260904104558 63 309 1.0 2.0 0.00 0.00 0.00 88 1011.1
20260904103023 63 307 0.0 2.0 0.00 0.00 0.00 88 1011.2
20260904101522 63 301 1.0 4.0 0.00 0.00 0.00 88 1011.1
20260904100022 63 310 0.0 3.0 0.00 0.00 0.00 90 1011.1
20260904094530 62 297 0.0 0.0 0.00 0.00 0.00 89 1011.0
20260904093021 62 297 0.0 0.0 0.00 0.00 0.00 88 1011.0
20260904091518 62 296 0.0 0.0 0.00 0.00 0.00 87 1011.0
20260904090016 63 297 0.0 0.0 0.00 0.00 0.00 88 1011.0
20260904084514 63 297 0.0 0.0 0.00 0.00 0.00 87 1011.0
20260904083027 63 297 0.0 0.0 0.00 0.00 0.00 86 1011.1
20260904081511 64 297 0.0 0.0 0.00 0.00 0.00 85 1011.2
20260904080008 65 297 0.0 0.0 0.00 0.00 0.00 85 1011.1
20260904074506 65 297 0.0 1.0 0.00 0.00 0.00 84 1011.1
20260904073006 65 297 0.0 1.0 0.00 0.00 0.00 84 1011.0
20260904071504 65 297 0.0 2.0 0.00 0.00 0.00 83 1011.0
20260904070002 65 288 0.0 0.0 0.00 0.00 0.00 83 1011.0
20260904064605 66 288 0.0 0.0 0.00 0.00 0.00 81 1011.1
20260904063002 66 288 0.0 3.0 0.00 0.00 0.00 81 1011.0
20260904061600 67 286 0.0 2.0 0.00 0.00 0.00 80 1011.0
20260904060114 68 301 2.0 5.0 0.00 0.00 0.00 78 1011.0
20260904054633 69 86 0.0 2.0 0.00 0.00 0.00 75 1011.1
20260904053059 68 290 1.0 5.0 0.00 0.00 0.00 78 1011.0
20260904051557 68 280 1.0 4.0 0.00 0.00 0.00 77 1011.1
20260904050057 68 302 2.0 5.0 0.00 0.00 0.00 77 1011.1
20260904044557 69 323 0.0 4.0 0.00 0.00 0.00 76 1010.9
20260904043103 69 309 1.0 4.0 0.00 0.00 0.00 75 1010.7
20260904041604 69 309 2.0 6.0 0.00 0.00 0.00 74 1010.7
20260904040056 70 291 1.0 4.0 0.00 0.00 0.00 73 1010.5
20260904034555 70 295 1.0 6.0 0.00 0.00 0.00 72 1010.3
20260904033054 71 233 0.0 5.0 0.00 0.00 0.00 71 1010.1
20260904031601 71 232 2.0 6.0 0.00 0.00 0.00 69 1009.8
20260904030054 72 312 3.0 7.0 0.00 0.00 0.00 67 1009.7
20260904024559 73 276 3.0 6.0 0.00 0.00 0.00 65 1009.5
20260904023053 73 329 3.0 8.0 0.00 0.00 0.00 64 1009.4
20260904021553 74 278 3.0 9.0 0.00 0.00 0.00 63 1009.3
20260904020055 74 311 9.0 14.0 0.00 0.00 0.00 62 1009.4
20260904014616 75 297 4.0 12.0 0.00 0.00 0.00 61 1009.4
20260904013105 76 290 8.0 16.0 0.00 0.00 0.00 59 1009.4
20260904011550 77 319 8.0 16.0 0.00 0.00 0.00 57 1009.4
20260904010055 79 299 4.0 12.0 0.00 0.00 0.00 55 1009.2
20260904004549 79 249 5.0 13.0 0.00 0.00 0.00 55 1009.3
20260904003050 80 221 6.0 13.0 0.00 0.00 0.00 54 1009.3
20260904001548 81 243 4.0 14.0 0.00 0.00 0.00 52 1009.3
20260904000049 81 284 6.0 15.0 0.00 0.00 0.00 52 1009.3
20260903234547 82 297 7.0 16.0 0.00 0.00 0.00 51 1009.4
20260903233045 83 278 8.0 15.0 0.00 0.00 0.00 50 1009.4
20260903231543 83 214 5.0 12.0 0.00 0.00 0.00 50 1009.5
20260903230042 84 242 4.0 16.0 0.00 0.00 0.00 49 1009.6
20260903224541 85 292 3.0 12.0 0.00 0.00 0.00 47 1009.7
20260903223042 85 290 4.0 12.0 0.00 0.00 0.00 46 1009.8
20260903221540 85 304 5.0 11.0 0.00 0.00 0.00 45 1009.9
20260903220036 87 292 2.0 9.0 0.00 0.00 0.00 43 1010.1
20260903214540 85 243 3.0 13.0 0.00 0.00 0.00 45 1010.2
20260903213040 85 301 2.0 11.0 0.00 0.00 0.00 45 1010.2